Regional Weather Roundup
Issued by NWS

Home | Current Version | Previous Version | Text Only | Print | Product List | Glossary Off
Versions: 1 2 3 4 5 6 7 8 9 10 11 12 13 14 15 16 17 18 19 20 21 22 23 24 25 26 27

000
ASUS45 KBOU 200510
RWRCO

WEATHER ROUNDUP FOR COLORADO
NATIONAL WEATHER SERVICE DENVER/BOULDER CO
1000 PM MST SUN NOV 19 2017

NOTE: "FAIR" INDICATES FEW OR NO CLOUDS BELOW 12000 FEET WITH NO
SIGNIFICANT WEATHER AND/OR OBSTRUCTIONS TO VISIBILITY.

COZ001>005-013-030-031-200600-
...NORTHWEST COLORADO...

CITY           SKY/WX    TMP DP  RH WIND       PRES   REMARKS
CRAIG          FAIR      15  11  83 CALM      30.14F
HAYDEN         FAIR      22  15  75 E10       30.15F WCI  11
MEEKER         FAIR      24  14  65 NE7       30.16F WCI  16
RABBIT EARS PA FAIR      19   9  63 W9G17     30.16F WCI   9
STEAMBOAT SPGS FAIR      19  16  88 CALM      30.16S
WALDEN         FAIR      30   5  34 SW15      30.11F WCI  19
$$

COZ006>008-011-200600-
...WEST CENTRAL VALLEYS...

CITY           SKY/WX    TMP DP  RH WIND       PRES   REMARKS
GRAND JUNCTION FAIR      31  16  54 E5        30.22S WCI  26
MONTROSE       FAIR      25  19  78 SE9       30.26S WCI  15
EAGLE          FAIR      21  17  84 E9        30.24S WCI  11
RIFLE          FAIR      25  19  78 CALM      30.23F
DELTA          FAIR      27  15  61 E3        30.24F
NUCLA          FAIR      30   5  34 E10       30.26S WCI  21
$$

COZ017>023-064>068-200600-
...SOUTHWEST COLORADO...

CITY           SKY/WX    TMP DP  RH WIND       PRES   REMARKS
DURANGO        FAIR      20  12  71 CALM      30.21S
CORTEZ         FAIR      19  11  70 N7        30.22F WCI  10
PAGOSA SPRINGS FAIR      25  14  61 CALM      30.24S
TELLURIDE      FAIR      27   6  40 SE7       30.28F WCI  20
WOLF CREEK PAS FAIR      21   7  53 S10       30.33S WCI  10
$$

COZ009-010-012-014-032>034-037-058>063-200600-
...CENTRAL COLORADO...

CITY           SKY/WX    TMP DP  RH WIND       PRES   REMARKS
ASPEN          FAIR      21  13  71 S7        30.21S WCI  12
BUENA VISTA    FAIR      32   7  34 NW10      30.16R WCI  24
COPPER MTN     FAIR      25  -9  22 MISG      30.23S
BERTHOUD PASS  FAIR      18   7  62 NW47G55   30.11S WCI  -6
COTTONWOOD PAS FAIR      37 -18   8 NW15G26   30.18R
GUNNISON       FAIR      14  10  84 CALM      30.29R
KREMMLING      FAIR      27  14  59 SE6       30.18R WCI  20
LEADVILLE      FAIR      20  -4  34 VRB6      30.19R WCI  12
MONARCH PASS   FAIR      21  -6  30 W41       30.32R WCI   0
SALIDA         FAIR      36   4  25 N7        30.23R
SUNLIGHT       FAIR      21   0  39 SW15G21   30.27F WCI   8
WILKERSON PASS MOCLDY    27 -15  15 W13G23    30.19S WCI  16
$$

COZ069>075-200600-
...SAN LUIS VALLEY/SANGRE DE CRISTO MOUNTAINS...

CITY           SKY/WX    TMP DP  RH WIND       PRES   REMARKS
ALAMOSA        FAIR      16   7  67 S8        30.18S WCI   5
DEL NORTE      FAIR      27   8  43 W16       30.20S WCI  15
LA VETA PASS   FAIR      28   0  29 SW22G30     N/A  WCI  15
SAGUACHE       FAIR      21   5  49 NW8       30.21R WCI  12
$$

COZ035-036-038>040-200600-
...NORTHERN COLORADO FRONT RANGE...

CITY           SKY/WX    TMP DP  RH WIND       PRES   REMARKS
DENVER INTL AP FAIR      35  14  42 S14       29.95F WCI  26
DMNS CITY PARK   N/A     45   6  20 SE7       29.96R
AURORA         PTCLDY    38  11  33 S8        29.98R
FRONT RANGE AP FAIR      44  13  28 SW14      29.96F
ERIE MUNI ARPT FAIR      46  -4  12 CALM      30.01R
BOULDER MUN AP FAIR      52   1  12 W7        29.93S
CENTENNIAL     FAIR      45   5  19 SW13      29.96F
BROOMFIELD     FAIR      48   0  13 SW5       29.97R
FORT COLLINS   FAIR      35  19  52 E13       29.94R WCI  26
LONGMONT       FAIR      44   4  19 SW8       29.95R
$$

COZ041-046-047-076>085-087-088-200600-
...PIKES PEAK/PALMER DIVIDE AND SOUTHERN FOOTHILLS...

CITY           SKY/WX    TMP DP  RH WIND       PRES   REMARKS
COLO. SPRINGS  FAIR      49   0  13 NW12      30.00F
A. F. ACADEMY  FAIR      48  -8   9 W20G25    29.99F
SCHRIEVER AFB  FAIR      47  -5  11 NW14      29.99F
CHEYENNE MTN   FAIR      47   0  14 CALM      29.97F
ELLICOTT       NOT AVBL
FALCON         FAIR      41  -4  15 W13       30.02S
FORT CARSON    FAIR      43  10  26 W8        29.97F
LIMON          FAIR      20  14  77 CALM      29.96F
MONUMENT HILL  FAIR      36   7  30 SW12      30.02F
CANON CITY     FAIR      41  10  28 W13       30.01F
WALSENBURG     FAIR      43   5  21 SW3       30.04F
TRINIDAD       FAIR      33  16  49 NW9       30.04S WCI  25
$$

COZ042>045-048>051-090-091-200600-
...NORTHEAST COLORADO...

CITY           SKY/WX    TMP DP  RH WIND       PRES   REMARKS
GREELEY ARPT   FAIR      28  20  71 CALM      29.94S
AKRON          FAIR      41  11  29 SW14      29.92F
BURLINGTON     FAIR      30  14  51 W10       29.94F WCI  21
WRAY           NOT AVBL
YUMA           FAIR      34  19  55 W8        29.90F WCI  27
STERLING       FAIR      27  19  74 SW5       29.91S WCI  21
HOLYOKE        FAIR      34  19  55 W7        29.89S WCI  28
FORT MORGAN    FAIR      35  19  52 SW3       29.93F
$$

COZ086-089-092>099-200600-
...SOUTHEAST COLORADO...

CITY           SKY/WX    TMP DP  RH WIND       PRES   REMARKS
PUEBLO         FAIR      42  13  30 S6        29.97F
LA JUNTA       FAIR      38  20  48 W12       29.95F
LAMAR          FAIR      31  15  52 SW7       29.93S WCI  24
SPRINGFIELD      N/A     29  16  58 VRB3      29.97F
$$




USA.gov is the U.S. government's official web portal to all federal, state and local government web resources and services.